THORAD AGENA D DEB

Satellite information

Favourite Embed

Satellite Type and Status

DEBRISIN ORBIT

Key statistics

Satellite THORAD AGENA D DEB at a glance.

Uptime

20178

Days in orbit

Revolutions

≈ 14.0

Per day

Orbit

SSO

Sun Synchronous Orbit

Inclination

100.0

Latest

Satellite identification and parameters

Extended collection of information and parameters for THORAD AGENA D DEB.

Object identification

Identified? True

Debris? True

Object name: THORAD AGENA D DEB

International designator: 1970-025MR

Object number (NORAD): 6014

Object ID (CCSDS): 6014

Country: UNITED STATES OF AMERICA (US)

Current information (Y/N): Y

RCS size: SMALL

Orbital parameters

Period: 102.609 minutes

Inclination: 100.0236 deg

SMA: 7260.212 km

Apoapsis: 919.335 km

Periapsis: 844.819 km

RAAN: 269.0482 deg

Eccentricy: 0.0051318

Argument of periapsis: 2.7876 deg

Mean anomaly: 357.3563 deg

Mean motion: 14.03391344 rev/day

Mean motion (dot): 0.00001557 rev/day2

B* drag term: 0.0010174 1/REarth

Two-line elements (TLE)

Creation date: July 4, 2025, 6:39 p.m.

Reference frame: TEME

Reference center: EARTH

Epoch: July 4, 2025, 3:43 a.m. UTC

TLE line 0: 0 THORAD AGENA D DEB

TLE line 1: 1 06014U 70025MR 25185.15499681 .00001557 00000-0 10174-2 0 9992

TLE line 2: 2 06014 100.0236 269.0482 0051318 2.7876 357.3563 14.03391344770192

Live tracking on map

Real-time ground track for satellite THORAD AGENA D DEB.

In-orbit conjunctions

A list of the most updated potential collisions computed for object THORAD AGENA D DEB.

Target Orbit TCA Probability of collision Miss distance Type
CZ-6A DEB SSO 2024-11-14 12:35:25 0.0001698614 931.0 (m) DEBRIS
GGSE 1 (GGRS) LEO 2024-07-20 04:30:47 0.0002128159 552.0 (m) PAYLOAD

Associated space launch

Meteorological research and development satellite

THORAD AGENA D DEB was lifted into orbit during the mission ‘Thorad SLV-2G Agena D | Nimbus 4’, on board a Thorad SLV-2G Agena D space rocket.

The launch took place on April 8, 1970, 8:17 a.m. from Space Launch Complex 2E.

For more information about the launch, click the button.

Launch to space Thorad SLV-2G Agena D | Nimbus 4
Thorad SLV-2G Agena D | Nimbus 4

Agency: N/A

Status: Launch Successful

Launch date: April 8, 1970, 8:17 a.m. UTC

Rocket: Thorad SLV-2G Agena D

Launch pad: Space Launch Complex 2E

Location: Vandenberg SFB, CA, USA

...

Latest news about this satellite

There are no fresh news available about this satellite. Check back as we update our databases every day.


Newsletter sign-up

Weekly statistics, charts and insights to help you stay on top of the space industry.